[[{"header":{"parameterUnit":"m.s-1","parameterCategory":2,"la1":30.2991,"la2":30.254,"lo1":-89.0895,"lo2":-89.0444,"dy":0.0017,"dx":0.0017,"nx":28,"ny":28,"refTime":"2025-12-31T03:00:00:Z","depth":"0","parameterNumber":2,"parameterNumberName":"U-component_of_CURRENTS"},"data":[0,0,0,0,0,0,0,0,0,0,0,0,0,0,0,0,0,0,0,0,0,0,0,0,0,0,0,0,0,0,0,0,0,0,0,0,0,0,0,0,0,0,0,0,0,0,0,0,0,0,0,0,0,0,0,0,0,0,-0.2887,-0.2888,0,-0.2931,-0.2931,-0.2932,-0.2903,-0.2902,-0.2901,-0.29,-0.2878,-0.2878,-0.2879,0,0,0,0,0,0,0,0,0,0,0,0,0,-0.2795,-0.2797,-0.2887,-0.2888,-0.2889,-0.2931,-0.2932,-0.2932,-0.2903,-0.2902,-0.29,-0.2899,-0.2878,-0.2878,-0.2879,0,0,0,0,0,0,0,0,0,0,0,0,0,-0.2834,-0.2797,-0.2887,-0.2881,-0.2881,-0.2931,-0.2932,-0.2932,-0.2903,-0.2902,-0.29,-0.2899,-0.2878,-0.2878,-0.2879,-0.2916,0,0,-0.2881,-0.2881,0,0,0,0,0,0,0,0,-0.2832,-0.2837,-0.2881,-0.2882,-0.2882,-0.2912,-0.2891,-0.2924,-0.2904,-0.2892,-0.29,-0.2898,-0.2886,-0.2886,-0.2895,-0.2915,-0.2914,-0.2881,-0.2881,-0.2882,-0.2882,0,0,0,0,0,0,0,-0.2829,-0.2835,-0.2902,-0.2882,-0.2883,-0.2883,-0.2886,-0.2898,-0.2895,-0.2893,-0.2892,-0.2902,-0.2885,-0.2895,-0.2894,-0.2913,-0.2881,-0.2882,-0.2882,-0.2882,-0.2958,-0.296,0,0,0,0,0,0,-0.2831,-0.2833,-0.29,-0.2903,-0.2856,-0.2886,-0.289,-0.2902,-0.2896,-0.2895,-0.2903,-0.29,-0.2894,-0.2894,-0.2893,-0.2918,-0.2882,-0.2882,-0.2883,-0.2956,-0.2958,-0.296,0,0,0,0,0,0,-0.2829,-0.2836,-0.2899,-0.2871,-0.2879,-0.2889,-0.2904,-0.2904,-0.2907,-0.2905,-0.2901,-0.2905,-0.2893,-0.2892,-0.291,-0.2917,-0.2883,-0.2883,-0.2954,-0.2957,-0.2959,-0.2979,0,0,0,0,0,0,-0.2826,-0.2835,-0.2839,-0.2871,-0.2881,-0.2932,-0.2906,-0.2906,-0.2917,-0.2913,-0.2906,-0.2902,-0.2892,-0.2909,-0.2911,-0.2918,-0.2884,-0.2952,-0.2956,-0.2958,-0.2976,-0.2982,-0.2987,0,0,0,0,0,-0.2822,-0.2839,-0.2839,-0.2847,-0.2888,-0.2934,-0.2939,-0.2938,-0.2918,-0.2931,-0.2927,-0.2902,-0.2929,-0.2912,-0.2913,-0.292,-0.2951,-0.2955,-0.2958,-0.2974,-0.2981,-0.2986,0,0,0,0,0,0,-0.2798,-0.2839,-0.284,-0.2866,-0.2899,-0.293,-0.2939,-0.2942,-0.295,-0.2939,-0.2926,-0.2924,-0.2943,-0.2939,-0.292,-0.2954,-0.2935,-0.294,-0.2947,-0.2953,-0.2959,-0.2948,-0.2884,0,0,0,0,0,-0.2798,-0.2817,-0.286,-0.2878,-0.2896,-0.2917,-0.2932,-0.2939,-0.2955,-0.2956,-0.2954,-0.2954,-0.2964,-0.2962,-0.2975,-0.2995,-0.2971,-0.3002,-0.3007,-0.3011,-0.3006,-0.2989,-0.299,-0.2972,-0.2972,-0.2972,0,0,-0.279,-0.2817,-0.2824,-0.2874,-0.2893,-0.2931,-0.2921,-0.2951,-0.2973,-0.2954,-0.2973,-0.2975,-0.2977,-0.2999,-0.3006,-0.299,-0.3006,-0.3016,-0.3019,-0.3012,-0.2992,-0.2994,-0.2995,-0.2975,-0.2974,-0.2974,0,0,-0.2796,-0.2812,-0.2835,-0.287,-0.2914,-0.2936,-0.2946,-0.2985,-0.2989,-0.3022,-0.301,-0.3016,-0.3037,-0.3034,-0.3035,-0.308,-0.3039,-0.3087,-0.3094,-0.3077,-0.3077,-0.3077,-0.3045,-0.3042,-0.3082,-0.3082,-0.3082,0,-0.2784,-0.2819,-0.2848,-0.2888,-0.2912,-0.2939,-0.2973,-0.2996,-0.3033,-0.3038,-0.303,-0.3055,-0.3051,-0.3066,-0.3079,-0.3087,-0.3067,-0.3064,-0.308,-0.3079,-0.3079,-0.3046,-0.3043,-0.3083,-0.3083,-0.3083,-0.3083,0,-0.2813,-0.2844,-0.2863,-0.2916,-0.295,-0.2985,-0.3029,-0.3053,-0.3059,-0.3075,-0.3095,-0.3098,-0.3103,-0.311,-0.3104,-0.3108,-0.3091,-0.309,-0.3055,-0.3081,-0.3046,-0.3042,-0.3085,-0.3085,-0.3084,-0.3084,0,0,-0.277,-0.2864,-0.2867,-0.2893,-0.2966,-0.2994,-0.304,-0.3082,-0.3092,-0.3122,-0.3125,-0.3148,-0.3138,-0.314,-0.3134,-0.3119,-0.3096,-0.3102,-0.31,-0.3053,-0.3045,-0.2926,-0.2909,-0.3094,-0.3094,-0.3093,-0.3019,0,-0.2776,-0.2844,-0.2893,-0.2945,-0.2979,-0.3027,-0.3065,-0.3105,-0.3125,-0.3139,-0.3141,-0.3149,-0.3154,-0.3146,-0.3137,-0.3111,-0.3088,-0.3116,-0.3041,-0.3039,-0.2915,-0.2901,-0.2764,-0.2676,-0.3014,-0.3014,-0.3013,0,-0.2777,-0.2824,-0.2879,-0.2952,-0.297,-0.3004,-0.3048,-0.309,-0.3127,-0.314,-0.3153,-0.3156,-0.3151,-0.3142,-0.3106,-0.3123,-0.3085,-0.306,-0.3056,-0.2932,-0.2911,-0.2708,-0.2655,-0.264,-0.3006,-0.3007,-0.3007,0,-0.2711,-0.2804,-0.2838,-0.2868,-0.2962,-0.2981,-0.3022,-0.3075,-0.3098,-0.3129,-0.3135,-0.3145,-0.313,-0.3106,-0.3065,-0.3082,-0.3004,-0.302,-0.2877,-0.2868,-0.2728,-0.2706,-0.2633,-0.298,-0.298,-0.298,-0.298,0,-0.2687,-0.2709,-0.2807,-0.2825,-0.285,-0.2935,-0.2958,-0.3002,-0.3056,-0.3068,-0.3119,-0.3113,-0.3119,-0.3083,-0.3052,-0.2936,-0.2992,-0.2861,-0.2834,-0.2731,-0.2712,-0.2673,-0.272,-0.2977,-0.2978,-0.2978,-0.2979,0,-0.2593,-0.2669,-0.2704,-0.2796,-0.2818,-0.2828,-0.2911,-0.2928,-0.3,-0.3014,-0.3023,-0.3072,-0.3016,-0.2999,-0.294,-0.2892,-0.2755,-0.2758,-0.2626,-0.2584,-0.242,-0.2474,-0.2391,-0.2323,-0.258,-0.2577,-0.2574,0,-0.2547,-0.2558,-0.2644,-0.2654,-0.2687,-0.273,-0.2754,-0.2864,-0.2892,-0.2977,-0.2965,-0.2948,-0.2884,-0.276,-0.2666,-0.2554,-0.2602,-0.2387,-0.2391,-0.2367,-0.241,-0.2475,-0.243,-0.2221,-0.2215,-0.2211,-0.2207,0,-0.2433,-0.2463,-0.249,-0.2517,-0.2543,-0.258,-0.2633,-0.2656,-0.2778,-0.2788,-0.2777,-0.2733,-0.2632,-0.2449,-0.2329,-0.2261,-0.2325,-0.2286,-0.23,-0.214,-0.2169,-0.2103,-0.2324,-0.2166,-0.217,-0.2173,-0.2175,-0.2177,-0.2316,-0.2301,-0.2336,-0.2341,-0.2376,-0.239,-0.2346,-0.2418,-0.242,-0.2354,-0.2508,-0.2348,-0.2305,-0.209,-0.202,-0.1877,-0.1995,-0.1837,-0.1909,-0.1981,-0.1893,-0.2006,-0.1798,-0.18,-0.1801,-0.1803,-0.1804,0,-0.215,-0.215,-0.2154,-0.2159,-0.2122,-0.2201,-0.2215,-0.2109,-0.2016,-0.1983,-0.192,-0.1886,-0.1751,-0.1722,-0.1638,-0.155,-0.1542,-0.1537,-0.1617,-0.1591,-0.1698,-0.1657,-0.136,-0.136,-0.136,-0.136,-0.136,-0.136,-0.2063,-0.2,-0.2004,-0.1886,-0.1881,-0.1748,-0.17,-0.1564,-0.1463,-0.1256,-0.1189,-0.1165,-0.1384,-0.1626,-0.1541,-0.1452,-0.146,-0.1398,-0.147,-0.1579,-0.1614,-0.1648,-0.1618,-0.1318,-0.1318,-0.128,-0.128,-0.128]},{"header":{"parameterUnit":"m.s-1","parameterCategory":2,"la1":30.2991,"la2":30.254,"lo1":-89.0895,"lo2":-89.0444,"dy":0.0017,"dx":0.0017,"nx":28,"ny":28,"refTime":"2025-12-31T03:00:00:Z","depth":"0","parameterNumber":3,"parameterNumberName":"V-component_of_CURRENTS"},"data":[0,0,0,0,0,0,0,0,0,0,0,0,0,0,0,0,0,0,0,0,0,0,0,0,0,0,0,0,0,0,0,0,0,0,0,0,0,0,0,0,0,0,0,0,0,0,0,0,0,0,0,0,0,0,0,0,0,0,-0.0199,-0.0198,0,-0.0086,-0.0084,-0.0083,-0.0005,-0.0004,-0.0004,-0.0003,0.0157,0.016,0.0164,0,0,0,0,0,0,0,0,0,0,0,0,0,-0.0274,-0.0273,-0.0199,-0.0197,-0.0196,-0.0086,-0.0084,-0.0083,-0.0005,-0.0004,-0.0004,-0.0003,0.0155,0.016,0.0165,0,0,0,0,0,0,0,0,0,0,0,0,0,-0.0208,-0.0273,-0.0199,-0.0145,-0.0139,-0.0086,-0.0084,-0.0082,-0.0005,-0.0004,-0.0004,-0.0003,0.0154,0.0159,0.0165,0.0187,0,0,0.0183,0.0185,0,0,0,0,0,0,0,0,-0.0212,-0.0205,-0.0154,-0.0149,-0.0142,-0.006,-0.0052,0.001,-0.0005,-0.0054,-0.0003,-0.0003,0.0087,0.0098,0.012,0.0195,0.0202,0.0183,0.0187,0.0189,0.0191,0,0,0,0,0,0,0,-0.0217,-0.0209,-0.0152,-0.0153,-0.0146,-0.0102,-0.0092,-0.004,0.0013,-0.005,-0.0044,-0.0035,0.0091,0.0114,0.0124,0.0204,0.0183,0.0188,0.0192,0.0194,0.0329,0.0329,0,0,0,0,0,0,-0.0238,-0.0214,-0.0156,-0.0149,-0.0178,-0.0102,-0.0091,-0.0086,0.0012,0.0027,-0.0035,-0.0031,0.0104,0.0117,0.013,0.0161,0.0189,0.0195,0.0198,0.0329,0.0329,0.0329,0,0,0,0,0,0,-0.0241,-0.0235,-0.0161,-0.018,-0.0168,-0.0102,-0.0096,-0.0084,-0.0061,0.0022,0.0038,-0.0026,0.0105,0.0122,0.0175,0.0168,0.0197,0.0203,0.0329,0.0329,0.0329,0.0224,0,0,0,0,0,0,-0.0243,-0.0236,-0.0242,-0.0182,-0.0167,-0.014,-0.0097,-0.0082,-0.0057,-0.0051,0.0036,0.0052,0.0107,0.0166,0.0181,0.0176,0.0207,0.0329,0.0329,0.0329,0.0227,0.022,0.0215,0,0,0,0,0,-0.0246,-0.0261,-0.0243,-0.0236,-0.0177,-0.0141,-0.013,-0.0079,-0.0058,-0.0055,0.0008,0.0049,0.0178,0.0171,0.0188,0.0185,0.0328,0.0329,0.0329,0.023,0.0222,0.0215,0,0,0,0,0,0,-0.0295,-0.0253,-0.0232,-0.0232,-0.0194,-0.0129,-0.0122,-0.0088,-0.0036,-0.0029,0.005,0.007,0.0114,0.0166,0.0155,0.0227,0.026,0.0264,0.0179,0.0172,0.0166,0.0147,0.0212,0,0,0,0,0,-0.0311,-0.0311,-0.0259,-0.026,-0.0246,-0.0186,-0.0166,-0.0133,-0.0079,-0.0056,0.0005,0.0072,0.0129,0.0161,0.0218,0.0256,0.0312,0.0267,0.0261,0.0255,0.0253,0.0321,0.032,0.033,0.033,0.033,0,0,-0.0329,-0.0307,-0.0305,-0.027,-0.0237,-0.0228,-0.0172,-0.015,-0.0137,-0.0047,-0.0013,0.005,0.0134,0.0175,0.02,0.0218,0.0283,0.0255,0.0249,0.0251,0.0321,0.032,0.0319,0.033,0.033,0.033,0,0,-0.0372,-0.0348,-0.0364,-0.034,-0.0302,-0.0263,-0.0263,-0.0203,-0.0172,-0.0131,-0.0063,-0.0007,0.0078,0.0136,0.0177,0.0172,0.0245,0.0191,0.0147,0.0212,0.0212,0.0212,0.0281,0.0288,0.019,0.019,0.019,0,-0.0398,-0.0409,-0.0362,-0.0371,-0.036,-0.0287,-0.03,-0.0257,-0.0187,-0.0162,-0.0135,-0.0004,0.006,0.0122,0.0121,0.0156,0.0208,0.0163,0.0202,0.0203,0.0205,0.0276,0.0285,0.0185,0.0185,0.0186,0.0186,0,-0.0451,-0.0459,-0.0467,-0.0454,-0.0434,-0.0433,-0.0373,-0.0346,-0.0298,-0.0248,-0.0181,-0.0086,-0.0008,0.0021,0.007,0.0117,0.0154,0.018,0.0213,0.0198,0.0274,0.0285,0.0178,0.0179,0.0181,0.0182,0,0,-0.051,-0.0508,-0.051,-0.0523,-0.048,-0.0471,-0.0449,-0.0405,-0.0388,-0.0309,-0.0275,-0.0174,-0.0115,-0.0064,0.001,0.007,0.0127,0.0123,0.0129,0.0177,0.0277,0.0333,0.0351,0.0157,0.0158,0.0159,0.0323,0,-0.0567,-0.0617,-0.0587,-0.0619,-0.064,-0.0571,-0.0556,-0.0504,-0.044,-0.0387,-0.0278,-0.0214,-0.0149,-0.0109,-0.0042,0.0088,0.0152,0.008,0.0298,0.0304,0.0344,0.0365,0.0421,0.0574,0.0335,0.0337,0.0338,0,-0.0629,-0.0655,-0.0708,-0.0711,-0.0711,-0.071,-0.067,-0.0645,-0.0547,-0.0495,-0.0408,-0.0313,-0.0203,-0.015,0.0054,0.0005,0.0127,0.0228,0.0237,0.0335,0.0382,0.0554,0.0605,0.0791,0.0357,0.0355,0.0354,0,-0.0709,-0.0736,-0.0785,-0.0788,-0.0776,-0.0777,-0.0758,-0.0682,-0.0657,-0.0556,-0.0519,-0.0376,-0.029,-0.0132,0.0081,0.0068,0.0313,0.0323,0.0493,0.0499,0.0614,0.0627,0.0859,0.0464,0.0464,0.0463,0.0463,0,-0.0787,-0.0822,-0.0829,-0.0859,-0.0905,-0.0858,-0.0871,-0.0826,-0.075,-0.0709,-0.0581,-0.05,-0.0281,-0.0108,0.0067,0.0325,0.0308,0.0497,0.0548,0.0579,0.0587,0.0808,0.0867,0.047,0.0468,0.0467,0.0466,0,-0.0866,-0.0871,-0.0931,-0.0944,-0.0949,-0.0979,-0.0957,-0.0955,-0.0872,-0.0811,-0.0778,-0.0582,-0.0345,-0.0115,0.017,0.032,0.0678,0.0644,0.0668,0.0719,0.1025,0.1073,0.1345,0.1471,0.0848,0.0851,0.0853,0,-0.0912,-0.0954,-0.1006,-0.1047,-0.1056,-0.1084,-0.1098,-0.103,-0.1009,-0.084,-0.081,-0.0573,-0.0363,0.0065,0.0359,0.0682,0.0818,0.0911,0.0894,0.1066,0.1158,0.1185,0.1272,0.1012,0.1015,0.1018,0.102,0,-0.0995,-0.1011,-0.106,-0.1149,-0.1188,-0.1223,-0.1223,-0.1212,-0.1098,-0.096,-0.075,-0.056,-0.0178,0.0229,0.0616,0.0806,0.1054,0.0974,0.1159,0.1315,0.1355,0.1491,0.0877,0.1043,0.1041,0.1039,0.1038,0.1037,-0.1042,-0.11,-0.1164,-0.124,-0.1292,-0.132,-0.1287,-0.1209,-0.1076,-0.0755,-0.0651,-0.0207,0.0144,0.0711,0.0908,0.1331,0.1274,0.1474,0.1523,0.1538,0.165,0.1081,0.1292,0.1291,0.1291,0.129,0.1289,0,-0.1092,-0.1154,-0.1245,-0.1322,-0.1375,-0.1379,-0.133,-0.1194,-0.0939,-0.0582,-0.0247,0.0358,0.0809,0.1157,0.164,0.1877,0.1921,0.1992,0.2057,0.2124,0.1648,0.1646,0.1934,0.1934,0.1934,0.1934,0.1933,0.1933,-0.1119,-0.1212,-0.1261,-0.1359,-0.1401,-0.1354,-0.1281,-0.1,-0.0695,-0.0043,0.0476,0.0799,0.1202,0.1862,0.2325,0.2372,0.259,0.2556,0.2672,0.2345,0.23,0.2258,0.2274,0.2689,0.269,0.3153,0.3158,0.3161]}],[{"header":{"parameterUnit":"m.s-1","parameterCategory":2,"la1":30.2991,"la2":30.254,"lo1":-89.0895,"lo2":-89.0444,"dy":0.0017,"dx":0.0017,"nx":28,"ny":28,"refTime":"2025-12-31T03:00:00:Z","depth":"2","parameterNumber":2,"parameterNumberName":"U-component_of_CURRENTS"},"data":[0,0,0,0,0,0,0,0,0,0,0,0,0,0,0,0,0,0,0,0,0,0,0,0,0,0,0,0,0,0,0,0,0,0,0,0,0,0,0,0,0,0,0,0,0,0,0,0,0,0,0,0,0,0,0,0,0,0,-0.273,-0.2731,0,-0.2779,-0.2779,-0.278,-0.2762,-0.2761,-0.276,-0.2759,-0.2752,-0.2753,-0.2754,0,0,0,0,0,0,0,0,0,0,0,0,0,-0.2635,-0.2636,-0.273,-0.2731,-0.2732,-0.2779,-0.2779,-0.278,-0.2762,-0.2761,-0.276,-0.2759,-0.2752,-0.2753,-0.2754,0,0,0,0,0,0,0,0,0,0,0,0,0,-0.2677,-0.2637,-0.273,-0.2731,-0.2731,-0.2779,-0.2779,-0.278,-0.2762,-0.2761,-0.2759,-0.2758,-0.2752,-0.2753,-0.2754,-0.2786,0,0,-0.2757,-0.2757,0,0,0,0,0,0,0,0,-0.2674,-0.268,-0.273,-0.2731,-0.2731,-0.2765,-0.2743,-0.278,-0.2762,-0.2748,-0.2759,-0.2758,-0.2754,-0.2755,-0.2764,-0.2786,-0.2785,-0.2757,-0.2757,-0.2758,-0.2758,0,0,0,0,0,0,0,-0.2671,-0.2678,-0.2747,-0.2731,-0.2732,-0.2733,-0.2737,-0.275,-0.2755,-0.2749,-0.2748,-0.2758,-0.2754,-0.2763,-0.2764,-0.2785,-0.2757,-0.2758,-0.2758,-0.2759,-0.2839,-0.284,0,0,0,0,0,0,-0.2672,-0.2675,-0.2746,-0.2749,-0.2702,-0.2736,-0.274,-0.2754,-0.2756,-0.2756,-0.2759,-0.2757,-0.2762,-0.2763,-0.2763,-0.2796,-0.2758,-0.2759,-0.2759,-0.2837,-0.2839,-0.2841,0,0,0,0,0,0,-0.2669,-0.2678,-0.2744,-0.2715,-0.2723,-0.2739,-0.2754,-0.2755,-0.2763,-0.2765,-0.2763,-0.2765,-0.2761,-0.2762,-0.2784,-0.2796,-0.2759,-0.276,-0.2835,-0.2838,-0.284,-0.2865,0,0,0,0,0,0,-0.2667,-0.2677,-0.2683,-0.2715,-0.2725,-0.2777,-0.2756,-0.2757,-0.2772,-0.277,-0.277,-0.2768,-0.276,-0.2783,-0.2785,-0.2796,-0.2761,-0.2833,-0.2836,-0.2839,-0.2862,-0.2868,-0.2873,0,0,0,0,0,-0.2663,-0.2681,-0.2683,-0.2692,-0.2735,-0.2779,-0.2784,-0.2788,-0.2774,-0.2788,-0.2788,-0.2768,-0.2803,-0.2785,-0.2788,-0.2799,-0.2832,-0.2836,-0.2839,-0.286,-0.2867,-0.2873,0,0,0,0,0,0,-0.2641,-0.2682,-0.2685,-0.2713,-0.2745,-0.2776,-0.2788,-0.2794,-0.2807,-0.2799,-0.279,-0.279,-0.2815,-0.2812,-0.2793,-0.2834,-0.2813,-0.2817,-0.2829,-0.2835,-0.284,-0.2832,-0.2762,0,0,0,0,0,-0.2641,-0.2662,-0.2704,-0.2724,-0.2742,-0.2765,-0.2781,-0.2791,-0.2809,-0.2813,-0.2816,-0.2821,-0.2835,-0.2837,-0.2852,-0.2874,-0.2852,-0.2885,-0.289,-0.2894,-0.2892,-0.2881,-0.2884,-0.2852,-0.2852,-0.2852,0,0,-0.2636,-0.2662,-0.2672,-0.2721,-0.2741,-0.2778,-0.277,-0.2803,-0.2827,-0.2811,-0.2838,-0.2843,-0.2848,-0.2874,-0.2884,-0.2868,-0.2891,-0.2899,-0.2902,-0.2897,-0.2885,-0.2888,-0.289,-0.2855,-0.2854,-0.2854,0,0,-0.2643,-0.2662,-0.2685,-0.2719,-0.2763,-0.2785,-0.2796,-0.2837,-0.2845,-0.2882,-0.2874,-0.2886,-0.2912,-0.2913,-0.2916,-0.2963,-0.2925,-0.297,-0.2982,-0.2972,-0.2974,-0.2975,-0.294,-0.2938,-0.2966,-0.2966,-0.2966,0,-0.2632,-0.267,-0.2698,-0.2736,-0.2762,-0.279,-0.2824,-0.285,-0.2891,-0.29,-0.2893,-0.2929,-0.2928,-0.295,-0.2964,-0.2971,-0.2952,-0.2952,-0.2976,-0.2977,-0.2978,-0.2942,-0.2939,-0.2968,-0.2967,-0.2967,-0.2967,0,-0.2662,-0.2695,-0.2713,-0.2767,-0.2801,-0.2836,-0.2882,-0.291,-0.2922,-0.2941,-0.297,-0.2976,-0.2988,-0.2996,-0.2992,-0.3005,-0.2985,-0.2986,-0.2952,-0.2982,-0.2943,-0.2939,-0.297,-0.2969,-0.2969,-0.2969,0,0,-0.2623,-0.2715,-0.2718,-0.2747,-0.2819,-0.2848,-0.2898,-0.2944,-0.2962,-0.2996,-0.3009,-0.3038,-0.3031,-0.3035,-0.3032,-0.3023,-0.3007,-0.3006,-0.3005,-0.2957,-0.2966,-0.2853,-0.2839,-0.3011,-0.3011,-0.3011,-0.2931,0,-0.2631,-0.2699,-0.2746,-0.2802,-0.2838,-0.2887,-0.2928,-0.2973,-0.3,-0.3022,-0.303,-0.3046,-0.305,-0.3047,-0.3044,-0.3021,-0.3002,-0.3027,-0.2957,-0.2954,-0.2839,-0.2833,-0.263,-0.2534,-0.2928,-0.2927,-0.2927,0,-0.2634,-0.2681,-0.2739,-0.2816,-0.2834,-0.2872,-0.2927,-0.2971,-0.3016,-0.3034,-0.3055,-0.3061,-0.3064,-0.3055,-0.3027,-0.3043,-0.3006,-0.2983,-0.2979,-0.2861,-0.2835,-0.2572,-0.2512,-0.2921,-0.2921,-0.2922,-0.2922,0,-0.2575,-0.2668,-0.2708,-0.2738,-0.2834,-0.2858,-0.2902,-0.2962,-0.2991,-0.3032,-0.3044,-0.3061,-0.3051,-0.3032,-0.2991,-0.3008,-0.2938,-0.2953,-0.2816,-0.2807,-0.2612,-0.2585,-0.2921,-0.2921,-0.2921,-0.2921,-0.2922,0,-0.2555,-0.2582,-0.2682,-0.2703,-0.2738,-0.2821,-0.2855,-0.2903,-0.2962,-0.2981,-0.3035,-0.3034,-0.3045,-0.3012,-0.2982,-0.2873,-0.2928,-0.2803,-0.2777,-0.2615,-0.2591,-0.2917,-0.2918,-0.2918,-0.2919,-0.292,-0.292,0,-0.2472,-0.2547,-0.2589,-0.2685,-0.271,-0.2728,-0.2818,-0.2841,-0.2917,-0.2938,-0.295,-0.2998,-0.2946,-0.2932,-0.2879,-0.2833,-0.276,-0.2708,-0.2503,-0.2453,-0.2639,-0.2642,-0.2545,-0.254,-0.2536,-0.2533,-0.253,0,-0.2432,-0.2448,-0.2541,-0.2556,-0.2593,-0.2645,-0.2676,-0.2786,-0.2818,-0.2902,-0.2895,-0.288,-0.2815,-0.2698,-0.2608,-0.2499,-0.2622,-0.2278,-0.2275,-0.2615,-0.26,-0.2609,-0.2618,-0.2025,-0.2019,-0.2013,-0.2009,0,-0.2333,-0.2367,-0.2399,-0.2435,-0.247,-0.2513,-0.2572,-0.2595,-0.2714,-0.2738,-0.2727,-0.2679,-0.2567,-0.235,-0.2235,-0.2163,-0.2282,-0.2161,-0.2553,-0.2158,-0.2119,-0.2107,-0.2133,-0.196,-0.1965,-0.1968,-0.1971,-0.1973,-0.2232,-0.2225,-0.2266,-0.2279,-0.2322,-0.2338,-0.2306,-0.2402,-0.2418,-0.2421,-0.2487,-0.2345,-0.2279,-0.1966,-0.1848,-0.1768,-0.1931,-0.1869,-0.1888,-0.1912,-0.1872,-0.183,-0.1607,-0.1609,-0.1612,-0.1614,-0.1616,0,-0.2089,-0.2095,-0.2105,-0.2114,-0.2081,-0.2164,-0.219,-0.2128,-0.2088,-0.215,-0.2105,-0.1819,-0.1655,-0.16,-0.1384,-0.134,-0.1351,-0.1299,-0.1322,-0.137,-0.1413,-0.1351,-0.0945,-0.0943,-0.0941,-0.094,0,0,-0.2014,-0.1965,-0.1967,-0.1856,-0.1854,-0.1741,-0.1708,-0.1673,-0.1659,-0.1586,-0.1529,-0.1613,-0.1559,-0.1268,-0.1184,-0.1031,-0.1198,-0.0976,-0.1511,-0.1586,-0.1627,-0.173,-0.1686,0,0,0,0,0]},{"header":{"parameterUnit":"m.s-1","parameterCategory":2,"la1":30.2991,"la2":30.254,"lo1":-89.0895,"lo2":-89.0444,"dy":0.0017,"dx":0.0017,"nx":28,"ny":28,"refTime":"2025-12-31T03:00:00:Z","depth":"2","parameterNumber":3,"parameterNumberName":"V-component_of_CURRENTS"},"data":[0,0,0,0,0,0,0,0,0,0,0,0,0,0,0,0,0,0,0,0,0,0,0,0,0,0,0,0,0,0,0,0,0,0,0,0,0,0,0,0,0,0,0,0,0,0,0,0,0,0,0,0,0,0,0,0,0,0,-0.0268,-0.0267,0,-0.0167,-0.0165,-0.0164,-0.0091,-0.0091,-0.009,-0.009,0.0055,0.0058,0.0061,0,0,0,0,0,0,0,0,0,0,0,0,0,-0.0336,-0.0335,-0.0268,-0.0267,-0.0266,-0.0167,-0.0165,-0.0164,-0.0091,-0.0091,-0.009,-0.009,0.0053,0.0058,0.0062,0,0,0,0,0,0,0,0,0,0,0,0,0,-0.0277,-0.0335,-0.0268,-0.0219,-0.0214,-0.0167,-0.0165,-0.0163,-0.0092,-0.0091,-0.009,-0.009,0.0052,0.0057,0.0062,0.008,0,0,0.0078,0.008,0,0,0,0,0,0,0,0,-0.028,-0.0274,-0.0227,-0.0222,-0.0216,-0.0142,-0.0136,-0.008,-0.0092,-0.0136,-0.009,-0.0089,-0.0009,0.0001,0.002,0.0086,0.0093,0.0078,0.0081,0.0084,0.0085,0,0,0,0,0,0,0,-0.0284,-0.0278,-0.0227,-0.0226,-0.0219,-0.018,-0.0171,-0.0125,-0.0076,-0.0132,-0.0127,-0.0118,-0.0005,0.0015,0.0024,0.0095,0.0078,0.0083,0.0086,0.0088,0.02,0.02,0,0,0,0,0,0,-0.0304,-0.0282,-0.023,-0.0224,-0.0249,-0.018,-0.017,-0.0166,-0.0077,-0.0064,-0.0119,-0.0115,0.0006,0.0018,0.003,0.0059,0.0084,0.0088,0.0091,0.02,0.02,0.02,0,0,0,0,0,0,-0.0306,-0.03,-0.0234,-0.0251,-0.024,-0.018,-0.0175,-0.0164,-0.0143,-0.0068,-0.0053,-0.011,0.0007,0.0023,0.0069,0.0065,0.0091,0.0095,0.02,0.02,0.02,0.0116,0,0,0,0,0,0,-0.0308,-0.0302,-0.0307,-0.0253,-0.024,-0.0217,-0.0176,-0.0163,-0.0139,-0.0133,-0.0055,-0.0041,0.0009,0.006,0.0074,0.0073,0.0099,0.02,0.02,0.02,0.0119,0.0113,0.0108,0,0,0,0,0,-0.0311,-0.0325,-0.0308,-0.0301,-0.0249,-0.0218,-0.0208,-0.0161,-0.014,-0.0138,-0.0082,-0.0043,0.0069,0.0064,0.008,0.008,0.0201,0.02,0.02,0.0121,0.0114,0.0108,0,0,0,0,0,0,-0.0357,-0.0318,-0.0298,-0.0299,-0.0266,-0.0207,-0.0201,-0.0169,-0.0124,-0.0117,-0.0044,-0.0026,0.0012,0.0057,0.005,0.0113,0.0141,0.0144,0.0076,0.007,0.0065,0.0051,0.0104,0,0,0,0,0,-0.0371,-0.0371,-0.0325,-0.0326,-0.0313,-0.0259,-0.0241,-0.021,-0.0163,-0.0142,-0.0087,-0.0028,0.0023,0.0053,0.0102,0.0136,0.0187,0.0147,0.0142,0.0137,0.0137,0.0207,0.0207,0.0199,0.0199,0.0199,0,0,-0.0388,-0.0367,-0.0366,-0.0335,-0.0305,-0.0297,-0.0246,-0.0227,-0.0214,-0.0134,-0.0102,-0.0048,0.0026,0.0064,0.0086,0.0103,0.0165,0.0136,0.0131,0.0135,0.0207,0.0207,0.0208,0.0199,0.0199,0.0199,0,0,-0.0428,-0.0406,-0.042,-0.0399,-0.0365,-0.0329,-0.0329,-0.0276,-0.0246,-0.0211,-0.0149,-0.0097,-0.0025,0.0032,0.0069,0.0064,0.013,0.0077,0.0045,0.0112,0.0113,0.0115,0.0173,0.0181,0.0078,0.0078,0.0078,0,-0.0452,-0.0461,-0.0419,-0.0427,-0.0415,-0.0351,-0.0361,-0.0323,-0.026,-0.0235,-0.0214,-0.0095,-0.0038,0.0025,0.0023,0.0052,0.0097,0.0061,0.0104,0.0107,0.011,0.017,0.0179,0.0074,0.0075,0.0075,0.0075,0,-0.05,-0.0505,-0.0513,-0.05,-0.0481,-0.048,-0.0425,-0.04,-0.0357,-0.0309,-0.0245,-0.0161,-0.0088,-0.0063,-0.002,0.0032,0.0058,0.0083,0.0116,0.0106,0.017,0.0181,0.0068,0.007,0.0071,0.0072,0,0,-0.0555,-0.055,-0.0552,-0.056,-0.0521,-0.0512,-0.0489,-0.0445,-0.0424,-0.0355,-0.0316,-0.0225,-0.0172,-0.0125,-0.0059,0.0002,0.006,0.0044,0.005,0.0094,0.0203,0.0234,0.025,0.0091,0.0093,0.0094,0.0236,0,-0.0605,-0.0647,-0.0618,-0.0644,-0.0659,-0.0596,-0.0579,-0.0528,-0.0468,-0.0415,-0.0312,-0.0252,-0.0196,-0.016,-0.0092,0.0023,0.0087,0.0019,0.0215,0.0221,0.0243,0.0264,0.0237,0.0362,0.0248,0.0249,0.0251,0,-0.0661,-0.0681,-0.0725,-0.0719,-0.0717,-0.0717,-0.0672,-0.0647,-0.055,-0.0501,-0.0416,-0.0331,-0.0225,-0.0181,0.001,-0.0038,0.0072,0.0162,0.0171,0.0238,0.0273,0.0358,0.0388,0.0271,0.0269,0.0268,0.0266,0,-0.0731,-0.075,-0.079,-0.0791,-0.0774,-0.0773,-0.0752,-0.0677,-0.0649,-0.0551,-0.0513,-0.0377,-0.03,-0.0152,0.0034,0.0024,0.0246,0.0259,0.0395,0.0398,0.0435,0.0439,0.0396,0.0396,0.0396,0.0396,0.0395,0,-0.0799,-0.0827,-0.0829,-0.0854,-0.0889,-0.0844,-0.0849,-0.0805,-0.0729,-0.0688,-0.0564,-0.0489,-0.0289,-0.0133,0.0024,0.0248,0.0245,0.0399,0.0443,0.0405,0.0404,0.0371,0.0367,0.0401,0.04,0.0399,0.0398,0,-0.087,-0.0872,-0.092,-0.0925,-0.0929,-0.0953,-0.0928,-0.0922,-0.0839,-0.078,-0.0748,-0.0565,-0.0356,-0.0148,0.011,0.024,0.0445,0.0526,0.0463,0.0496,0.0552,0.0541,0.0687,0.069,0.0692,0.0693,0.0695,0,-0.0911,-0.0946,-0.0988,-0.1023,-0.103,-0.1051,-0.1062,-0.0993,-0.0967,-0.081,-0.078,-0.057,-0.0392,-0.0014,0.0243,0.0525,0.0522,0.0657,0.0637,0.0557,0.0585,0.0571,0.0558,0.0654,0.0654,0.0655,0.0656,0,-0.0986,-0.0999,-0.1039,-0.1119,-0.1152,-0.1179,-0.1175,-0.1167,-0.1058,-0.0964,-0.0787,-0.0627,-0.0264,0.0054,0.0395,0.0554,0.0604,0.0683,0.0642,0.0574,0.0535,0.0558,0.0545,0.0663,0.0662,0.0662,0.0661,0.0661,-0.103,-0.1082,-0.1137,-0.1205,-0.1251,-0.1281,-0.1291,-0.1248,-0.1174,-0.101,-0.0817,-0.0552,-0.0239,0.0248,0.0504,0.0714,0.071,0.0768,0.0762,0.0756,0.0717,0.0683,0.0831,0.0831,0.0832,0.0832,0.0832,0,-0.1081,-0.1137,-0.1216,-0.129,-0.1346,-0.1347,-0.1345,-0.1308,-0.1214,-0.102,-0.0806,-0.0414,-0.0055,0.0243,0.0594,0.082,0.0792,0.0843,0.0768,0.0761,0.0754,0.0711,0.0826,0.0827,0.0827,0.0828,0,0,-0.1109,-0.1194,-0.1236,-0.1344,-0.1393,-0.1424,-0.1415,-0.1336,-0.1193,-0.0966,-0.0755,-0.0469,-0.0059,0.0191,0.0481,0.066,0.0644,0.0669,0.0653,0.0525,0.0515,0.0696,0.062,0,0,0,0,0]}],[{"header":{"parameterUnit":"m.s-1","parameterCategory":2,"la1":30.2991,"la2":30.254,"lo1":-89.0895,"lo2":-89.0444,"dy":0.0017,"dx":0.0017,"nx":28,"ny":28,"refTime":"2025-12-31T03:00:00:Z","depth":"4","parameterNumber":2,"parameterNumberName":"U-component_of_CURRENTS"},"data":[0,0,0,0,0,0,0,0,0,0,0,0,0,0,0,0,0,0,0,0,0,0,0,0,0,0,0,0,0,0,0,0,0,0,0,0,0,0,0,0,0,0,0,0,0,0,0,0,0,0,0,0,0,0,0,0,0,0,-0.198,-0.1981,0,-0.2069,-0.207,-0.207,-0.2123,-0.2123,-0.2123,-0.2124,-0.2202,-0.2204,-0.2205,0,0,0,0,0,0,0,0,0,0,0,0,0,-0.1852,-0.1854,-0.1979,-0.1981,-0.1982,-0.2069,-0.207,-0.2071,-0.2123,-0.2123,-0.2123,-0.2124,-0.2201,-0.2203,-0.2205,0,0,0,0,0,0,0,0,0,0,0,0,0,-0.1919,-0.1855,-0.1979,-0.202,-0.2024,-0.2068,-0.207,-0.2071,-0.2122,-0.2123,-0.2124,-0.2124,-0.2201,-0.2203,-0.2206,-0.221,0,0,-0.2214,-0.2215,0,0,0,0,0,0,0,0,-0.1915,-0.1923,-0.2012,-0.2017,-0.2022,-0.2087,-0.2054,-0.2118,-0.2122,-0.2083,-0.2124,-0.2124,-0.2163,-0.2169,-0.2182,-0.2214,-0.2217,-0.2214,-0.2215,-0.2217,-0.2217,0,0,0,0,0,0,0,-0.191,-0.192,-0.2013,-0.2014,-0.202,-0.2033,-0.2043,-0.2066,-0.2117,-0.2087,-0.2091,-0.2104,-0.2166,-0.2179,-0.2184,-0.2218,-0.2214,-0.2216,-0.2218,-0.2219,-0.2349,-0.2351,0,0,0,0,0,0,-0.1903,-0.1916,-0.201,-0.2016,-0.1971,-0.2035,-0.2046,-0.2064,-0.2117,-0.2127,-0.2103,-0.2106,-0.2175,-0.2181,-0.2187,-0.2274,-0.2216,-0.2219,-0.222,-0.2347,-0.2349,-0.2351,0,0,0,0,0,0,-0.19,-0.1911,-0.2007,-0.1969,-0.1982,-0.2037,-0.2056,-0.2065,-0.2113,-0.213,-0.2139,-0.2145,-0.2175,-0.2183,-0.2243,-0.2275,-0.222,-0.2222,-0.2345,-0.2348,-0.235,-0.2399,0,0,0,0,0,0,-0.1896,-0.1909,-0.1935,-0.1968,-0.1984,-0.2056,-0.2056,-0.2067,-0.2119,-0.2124,-0.2169,-0.2175,-0.2176,-0.2239,-0.2245,-0.2277,-0.2224,-0.2342,-0.2346,-0.2349,-0.2395,-0.2403,-0.241,0,0,0,0,0,-0.1891,-0.192,-0.1936,-0.1949,-0.2013,-0.2058,-0.2067,-0.2105,-0.212,-0.2149,-0.2184,-0.2175,-0.2266,-0.2243,-0.225,-0.2283,-0.234,-0.2345,-0.2349,-0.2391,-0.2401,-0.2409,0,0,0,0,0,0,-0.188,-0.1929,-0.1947,-0.1991,-0.2033,-0.2068,-0.2102,-0.2125,-0.2175,-0.219,-0.2202,-0.2211,-0.2274,-0.2276,-0.225,-0.2333,-0.2301,-0.2307,-0.2331,-0.234,-0.2348,-0.2339,-0.2227,0,0,0,0,0,-0.1888,-0.1925,-0.1968,-0.2007,-0.203,-0.2072,-0.2101,-0.213,-0.217,-0.2194,-0.2227,-0.2261,-0.2291,-0.2315,-0.2343,-0.2389,-0.2365,-0.2416,-0.2423,-0.2429,-0.2428,-0.2428,-0.2435,-0.2365,-0.2365,-0.2365,0,0,-0.1895,-0.1927,-0.195,-0.2008,-0.2043,-0.2086,-0.2092,-0.2148,-0.2191,-0.2193,-0.2271,-0.2294,-0.2312,-0.2365,-0.2393,-0.2374,-0.2436,-0.2435,-0.244,-0.2435,-0.2433,-0.2439,-0.2445,-0.2368,-0.2368,-0.2367,0,0,-0.1915,-0.1957,-0.1991,-0.203,-0.2092,-0.2119,-0.2142,-0.2201,-0.2238,-0.2306,-0.2318,-0.236,-0.2419,-0.2431,-0.2443,-0.251,-0.2478,-0.2528,-0.2557,-0.2557,-0.2562,-0.2566,-0.2532,-0.2533,-0.2529,-0.2529,-0.2529,0,-0.1923,-0.1971,-0.2009,-0.2051,-0.209,-0.2137,-0.2182,-0.2225,-0.2299,-0.2329,-0.2342,-0.2427,-0.2444,-0.249,-0.2515,-0.2525,-0.251,-0.2518,-0.2565,-0.2568,-0.2572,-0.2535,-0.2535,-0.2532,-0.2531,-0.2531,-0.2531,0,-0.1957,-0.2011,-0.2036,-0.2104,-0.215,-0.22,-0.2258,-0.2315,-0.2364,-0.2399,-0.2473,-0.25,-0.2542,-0.256,-0.256,-0.26,-0.2576,-0.2573,-0.2534,-0.2581,-0.254,-0.2539,-0.2536,-0.2535,-0.2534,-0.2533,0,0,-0.1928,-0.2039,-0.2051,-0.2095,-0.2185,-0.2221,-0.23,-0.237,-0.2415,-0.2487,-0.2534,-0.2597,-0.2609,-0.2623,-0.2631,-0.2636,-0.2643,-0.2621,-0.262,-0.2573,-0.2623,-0.2439,-0.2419,-0.2653,-0.2654,-0.2654,-0.2579,0,-0.1945,-0.2029,-0.2083,-0.2169,-0.2215,-0.2286,-0.2348,-0.242,-0.2479,-0.2536,-0.2571,-0.2622,-0.2633,-0.2654,-0.2666,-0.2653,-0.2646,-0.2662,-0.2596,-0.2593,-0.2413,-0.2414,-0.2656,-0.2578,-0.2578,-0.2578,-0.2577,0,-0.1948,-0.2008,-0.2095,-0.2201,-0.2228,-0.229,-0.2389,-0.2452,-0.2534,-0.2576,-0.2631,-0.2656,-0.2688,-0.2685,-0.2681,-0.2694,-0.2664,-0.2646,-0.2642,-0.2451,-0.2407,-0.2527,-0.2575,-0.2575,-0.2575,-0.2576,-0.2576,0,-0.1889,-0.201,-0.2082,-0.2121,-0.2247,-0.2304,-0.2372,-0.2467,-0.2515,-0.26,-0.2629,-0.2678,-0.2692,-0.2688,-0.2658,-0.2677,-0.2623,-0.2638,-0.244,-0.2426,-0.2594,-0.2591,-0.2622,-0.2622,-0.2622,-0.2622,-0.2623,0,-0.1861,-0.1921,-0.2068,-0.2105,-0.2184,-0.2285,-0.2367,-0.2437,-0.2526,-0.2559,-0.2643,-0.2649,-0.2697,-0.2674,-0.2652,-0.2519,-0.2615,-0.2427,-0.2391,-0.2615,-0.2615,-0.2592,-0.2589,-0.262,-0.262,-0.2621,-0.2621,0,-0.1775,-0.1878,-0.1963,-0.2112,-0.216,-0.2215,-0.2354,-0.2397,-0.25,-0.254,-0.2565,-0.2625,-0.2579,-0.2584,-0.2548,-0.2474,-0.2393,-0.2324,-0.2533,-0.2514,-0.2199,-0.22,-0.2091,-0.2084,-0.2078,-0.2073,-0.2068,0,-0.1732,-0.1773,-0.1941,-0.1987,-0.2061,-0.2165,-0.2222,-0.236,-0.2397,-0.2495,-0.2484,-0.2487,-0.2499,-0.2276,-0.2322,-0.2227,-0.2211,-0.2159,-0.2206,-0.2166,-0.2144,-0.2155,-0.2164,-0.2059,-0.2057,-0.2055,-0.2054,0,-0.1639,-0.1719,-0.1787,-0.1883,-0.1965,-0.2037,-0.2133,-0.2141,-0.2272,-0.2395,-0.2316,-0.2265,-0.2191,-0.2135,-0.2059,-0.2013,-0.2192,-0.2096,-0.2109,-0.2153,-0.2126,-0.2112,-0.2129,-0.2033,-0.2036,-0.2038,-0.2039,0,-0.1562,-0.1585,-0.1683,-0.1744,-0.184,-0.186,-0.194,-0.1965,-0.2012,-0.2133,-0.2096,-0.2098,-0.2156,-0.202,-0.1964,-0.1881,-0.1866,-0.1824,-0.1852,-0.1876,-0.184,-0.1777,-0.1525,0,0,0,0,0,-0.1472,-0.1478,-0.153,-0.1586,-0.1671,-0.1713,-0.1848,-0.1931,-0.2066,-0.1949,-0.2014,-0.1935,-0.1826,-0.1836,-0.17,-0.1874,-0.1881,-0.1712,-0.1852,-0.1915,-0.194,-0.1919,0,0,0,0,0,0,-0.1413,-0.1458,-0.1474,-0.1428,-0.1425,-0.1492,-0.1563,-0.1664,-0.1616,-0.1754,-0.1693,-0.1802,-0.1716,-0.1839,-0.1644,-0.1648,-0.1696,-0.1736,-0.173,-0.1902,-0.1924,-0.1943,-0.193,0,0,0,0,0]},{"header":{"parameterUnit":"m.s-1","parameterCategory":2,"la1":30.2991,"la2":30.254,"lo1":-89.0895,"lo2":-89.0444,"dy":0.0017,"dx":0.0017,"nx":28,"ny":28,"refTime":"2025-12-31T03:00:00:Z","depth":"4","parameterNumber":3,"parameterNumberName":"V-component_of_CURRENTS"},"data":[0,0,0,0,0,0,0,0,0,0,0,0,0,0,0,0,0,0,0,0,0,0,0,0,0,0,0,0,0,0,0,0,0,0,0,0,0,0,0,0,0,0,0,0,0,0,0,0,0,0,0,0,0,0,0,0,0,0,-0.0218,-0.0217,0,-0.015,-0.0149,-0.0148,-0.0096,-0.0096,-0.0096,-0.0095,0.0016,0.0018,0.0021,0,0,0,0,0,0,0,0,0,0,0,0,0,-0.0256,-0.0256,-0.0218,-0.0217,-0.0216,-0.015,-0.0149,-0.0148,-0.0097,-0.0096,-0.0096,-0.0095,0.0015,0.0018,0.0021,0,0,0,0,0,0,0,0,0,0,0,0,0,-0.0218,-0.0256,-0.0218,-0.0184,-0.018,-0.015,-0.0149,-0.0148,-0.0097,-0.0096,-0.0096,-0.0095,0.0014,0.0018,0.0022,0.0035,0,0,0.0034,0.0035,0,0,0,0,0,0,0,0,-0.022,-0.0216,-0.0189,-0.0186,-0.0182,-0.0132,-0.0122,-0.0085,-0.0097,-0.0127,-0.0095,-0.0095,-0.0031,-0.0023,-0.001,0.004,0.0045,0.0034,0.0036,0.0038,0.0039,0,0,0,0,0,0,0,-0.0223,-0.0219,-0.019,-0.0189,-0.0184,-0.0156,-0.015,-0.0114,-0.0081,-0.0124,-0.0121,-0.0115,-0.0028,-0.0014,-0.0007,0.0047,0.0034,0.0037,0.004,0.0041,0.0122,0.0122,0,0,0,0,0,0,-0.0237,-0.0222,-0.0192,-0.0188,-0.0202,-0.0156,-0.0149,-0.0148,-0.0082,-0.0072,-0.0116,-0.0113,-0.0021,-0.0012,-0.0003,0.0019,0.0038,0.0042,0.0044,0.0122,0.0122,0.0122,0,0,0,0,0,0,-0.0238,-0.0235,-0.0194,-0.0204,-0.0197,-0.0156,-0.0154,-0.0147,-0.0134,-0.0077,-0.0066,-0.0112,-0.0021,-0.0009,0.0024,0.0024,0.0044,0.0047,0.0123,0.0122,0.0122,0.0062,0,0,0,0,0,0,-0.024,-0.0236,-0.0243,-0.0205,-0.0197,-0.0187,-0.0155,-0.0146,-0.0132,-0.0128,-0.0069,-0.0058,-0.0019,0.0018,0.0028,0.0029,0.005,0.0123,0.0123,0.0122,0.0064,0.006,0.0056,0,0,0,0,0,-0.0241,-0.0255,-0.0243,-0.024,-0.0206,-0.0187,-0.0181,-0.0149,-0.0133,-0.0134,-0.0092,-0.006,0.0022,0.002,0.0032,0.0035,0.0123,0.0123,0.0122,0.0066,0.0061,0.0056,0,0,0,0,0,0,-0.0274,-0.025,-0.0237,-0.0241,-0.0221,-0.0179,-0.0179,-0.0156,-0.0124,-0.0119,-0.0063,-0.0049,-0.0022,0.0013,0.0009,0.0057,0.0078,0.008,0.0032,0.0027,0.0023,0.0014,0.0053,0,0,0,0,0,-0.0286,-0.0289,-0.0259,-0.0264,-0.0257,-0.0219,-0.0208,-0.0187,-0.0153,-0.0139,-0.0098,-0.0053,-0.0014,0.001,0.0045,0.0072,0.0115,0.0081,0.0077,0.0073,0.0074,0.0142,0.0144,0.012,0.012,0.012,0,0,-0.03,-0.0288,-0.0289,-0.0271,-0.0252,-0.0248,-0.0211,-0.0201,-0.0193,-0.0131,-0.0111,-0.007,-0.0013,0.0016,0.0032,0.0046,0.01,0.0073,0.0069,0.0072,0.0141,0.0144,0.0146,0.012,0.012,0.012,0,0,-0.0332,-0.032,-0.0333,-0.0321,-0.03,-0.0276,-0.0277,-0.0241,-0.0221,-0.0198,-0.015,-0.0108,-0.0057,-0.0009,0.0021,0.0016,0.007,0.0023,0.0002,0.0067,0.007,0.0073,0.0118,0.0125,0.0026,0.0026,0.0026,0,-0.0351,-0.0361,-0.0334,-0.0343,-0.0337,-0.0293,-0.0303,-0.0276,-0.0234,-0.0213,-0.0202,-0.011,-0.0065,-0.0009,-0.0013,0.0008,0.0045,0.0016,0.0062,0.0066,0.007,0.0116,0.0125,0.0023,0.0023,0.0024,0.0024,0,-0.0388,-0.0397,-0.0405,-0.04,-0.039,-0.0393,-0.0354,-0.0338,-0.0309,-0.0272,-0.0222,-0.0157,-0.0099,-0.0079,-0.0048,0.0004,0.0019,0.0044,0.0074,0.0069,0.0117,0.0128,0.0019,0.002,0.0021,0.0022,0,0,-0.0428,-0.0432,-0.0435,-0.0444,-0.0421,-0.0417,-0.0403,-0.037,-0.0353,-0.0303,-0.027,-0.0199,-0.0157,-0.012,-0.0068,-0.001,0.0045,0.0022,0.0027,0.0063,0.0176,0.0148,0.0157,0.0078,0.008,0.0081,0.0193,0,-0.0465,-0.0501,-0.0485,-0.051,-0.0523,-0.0481,-0.047,-0.0432,-0.0388,-0.0346,-0.0261,-0.0214,-0.0173,-0.0145,-0.0081,0.0011,0.0072,0.0012,0.0178,0.0182,0.0157,0.0168,0.0087,0.0201,0.0204,0.0206,0.0207,0,-0.0505,-0.0524,-0.0564,-0.0565,-0.0565,-0.0572,-0.0541,-0.0524,-0.0447,-0.0409,-0.0339,-0.0271,-0.0181,-0.0147,0.0015,-0.0027,0.0067,0.0142,0.0149,0.0153,0.0175,0.0212,0.0227,0.0225,0.0224,0.0222,0.0221,0,-0.0549,-0.0573,-0.061,-0.0613,-0.0609,-0.0615,-0.0605,-0.0548,-0.0527,-0.0447,-0.0415,-0.0301,-0.0241,-0.0112,0.0036,0.003,0.0217,0.0233,0.0301,0.03,0.0318,0.0315,0.0359,0.0359,0.0359,0.0358,0.0358,0,-0.059,-0.0618,-0.064,-0.0662,-0.0698,-0.067,-0.0681,-0.0649,-0.0591,-0.0557,-0.0455,-0.0393,-0.0228,-0.01,0.0031,0.019,0.0218,0.03,0.0332,0.0288,0.0279,0.0325,0.032,0.0363,0.0362,0.0361,0.036,0,-0.0629,-0.0644,-0.0692,-0.0714,-0.0726,-0.0752,-0.0749,-0.0744,-0.0682,-0.0632,-0.0607,-0.0457,-0.0294,-0.0126,0.0091,0.0176,0.0336,0.0393,0.0321,0.0346,0.0376,0.0366,0.0471,0.0471,0.0471,0.0471,0.0471,0,-0.0651,-0.0683,-0.0745,-0.0784,-0.0802,-0.0834,-0.085,-0.0804,-0.0782,-0.0659,-0.0629,-0.0469,-0.0354,-0.0069,0.0097,0.0332,0.0369,0.0436,0.0415,0.037,0.039,0.038,0.0371,0.0471,0.0471,0.0471,0.0471,0,-0.069,-0.072,-0.076,-0.0848,-0.0893,-0.0925,-0.0935,-0.0921,-0.0839,-0.0787,-0.0622,-0.0458,-0.0275,-0.0066,0.0111,0.0285,0.0376,0.0437,0.0438,0.0419,0.0371,0.0389,0.038,0.0472,0.0472,0.0472,0.0472,0,-0.0717,-0.0761,-0.0827,-0.0894,-0.0962,-0.099,-0.0988,-0.093,-0.0887,-0.0731,-0.0677,-0.0455,-0.0324,-0.0087,0.0084,0.0234,0.0272,0.0309,0.0318,0.0319,0.0233,0.0148,0.0211,0,0,0,0,0,-0.0734,-0.0788,-0.0864,-0.0937,-0.1004,-0.1032,-0.1028,-0.1002,-0.0918,-0.0808,-0.0732,-0.0546,-0.0268,-0.014,0.0008,0.0056,0.0267,0.0229,0.0306,0.0472,0.0472,0.0393,0,0,0,0,0,0,-0.0748,-0.0826,-0.0866,-0.0954,-0.1007,-0.1062,-0.1058,-0.1003,-0.0917,-0.0812,-0.0657,-0.0538,-0.0271,-0.0357,0.0001,0.0049,0.0112,0.0371,0.0373,0.0472,0.0472,0.0472,0.0391,0,0,0,0,0]}]]